Regional Weather Roundup
Issued by NWS

Home | Current Version | Previous Version | Graphics & Text | Print | Product List | Glossary On
Versions: 1 2 3 4 5 6 7 8 9 10 11 12 13 14 15 16 17 18 19 20 21 22 23 24 25 26 27 28 29 30 31 32 33 34 35 36 37 38 39 40 41 42 43 44 45 46 47 48 49 50
000
ASUS45 KTFX 282010
RWRMT
MONTANA REGIONAL WEATHER ROUNDUP
NATIONAL WEATHER SERVICE GREAT FALLS MT
200 PM MDT WED SEP 28 2016

NOTE: "FAIR" INDICATES FEW OR NO CLOUDS BELOW 12000 FEET WITH NO
SIGNIFICANT WEATHER AND/OR OBSTRUCTIONS TO VISIBILITY.

MTZ001>007-043-282100-
WEST OF THE DIVIDE

CITY           SKY/WX    TMP DP  RH WIND       PRES   REMARKS
KALISPELL      SUNNY     71  41  33 NE9       30.08F
MISSOULA       SUNNY     76  45  33 S7        30.07F
BUTTE          SUNNY     72  40  31 SE14      30.20F
MULLAN PASS    SUNNY     64  44  48 VRB6      30.18S
ANACONDA         N/A     75  39  27 E9        30.15F
DEER LODGE       N/A     77  41  27 S7        30.16F
EUREKA           N/A     68  37  32 W5        30.11F
HAMILTON         N/A     72  45  37 CALM      30.08F
LIBBY            N/A     72  45  37 N3        30.06F
PLAINS           N/A     77  46  33 CALM      30.05F
RONAN            N/A     72  44  36 N6        30.12F
$$

MTZ008-052>055-282100-
SOUTHWEST MONTANA

CITY           SKY/WX    TMP DP  RH WIND       PRES   REMARKS
BOZEMAN        SUNNY     67  47  48 W6        30.21F
DILLON         SUNNY     67  43  41 VRB3      30.21F
W YELLOWSTONE  SUNNY     72  32  23 SW14G24   30.31F
ENNIS          SUNNY     68  41  37 VRB7      30.26F
THREE FORKS      N/A     68  44  41 W1        30.18F
TWIN BRIDGES     N/A     69  41  36 N2        30.17F
$$

MTZ009-010-012-014-046-048-049-054-282100-
EAST SLOPES AND CENTRAL MONTANA

CITY           SKY/WX    TMP DP  RH WIND       PRES   REMARKS
CUT BANK       MOSUNNY   59  42  53 SE9       30.22F
GREAT FALLS    SUNNY     61  42  49 NE6       30.22F
MALMSTROM AFB  SUNNY     61  44  53 NE5       30.21F
HELENA         SUNNY     67  42  40 NE3       30.18F
AUGUSTA          N/A     58  41  53 SE8       30.21F
BOWMANS CRNR     N/A     58  43  57 E8        30.19F
CHOTEAU          N/A     61  41  48 VRB3      30.23F
CONRAD           N/A     60  49  67 E7        30.22F
FAIRFIELD        N/A     59  42  52 E8        30.20F
POWER            N/A     59  43  55 E10       30.21F
RAYNESFORD       N/A     63  48  57 E12G21    30.20F
$$

MTZ011-013-016-021-045-047-050-051-282100-
NORTH CENTRAL MONTANA

CITY           SKY/WX    TMP DP  RH WIND       PRES   REMARKS
HAVRE          SUNNY     65  46  50 NE17      30.22F
LEWISTOWN      SUNNY     67  48  50 E10       30.23F
N BAR RANCH      N/A     63  46  55 SE10      30.28F
CHINOOK          N/A     63  45  51 E13       30.23F
DENTON           N/A     65  47  52 E8G17     30.18F
GEYSER           N/A     58  41  53 SE8       30.21F
GRASS RANGE      N/A     62  48  58 E8        30.21F
JUDITH GAP       N/A     62  48  58 S18G30    30.25F
ROY              N/A     63  50  61 MISG      30.23F
STANFORD         N/A     68  47  46 SE18G24   30.21F
WINIFRED         N/A     64  47  55 MISG      30.22F
$$

MTZ017>020-022>027-061-062-282100-
NORTHEAST MONTANA

CITY           SKY/WX    TMP DP  RH WIND       PRES   REMARKS
GLASGOW        SUNNY     70  47  43 VRB6      30.24F
JORDAN           N/A     68  50  52 SE8       30.24F
SIDNEY         SUNNY     66  52  60 NE6       30.25F
WOLF POINT     SUNNY     71  49  45 E3        30.25F
PLENTYWOOD       N/A     70  48  46 NE7       30.25F
POPLAR           N/A     68  48  49 E5        30.25F
SCOBEY           N/A     71  46  40 N3        30.23F
$$

MTZ028>42-056>058-282100-
SOUTHCENTRAL AND SOUTHEAST MONTANA

CITY           SKY/WX    TMP DP  RH WIND       PRES   REMARKS
BAKER          SUNNY     74  53  48 CALM      30.26F
BILLINGS       SUNNY     64  48  56 VRB5      30.24F
LIVINGSTON     SUNNY     66  46  48 E10       30.23F
MILES CITY     SUNNY     69  51  52 VRB5      30.24F
BIG TIMBER     SUNNY     64  46  52 E10       30.27F
EKALAKA          N/A     77  51  39 N2        30.22F
FORSYTH          N/A     68  52  56 CALM      30.24F
HARLOWTON        N/A     62  47  59 SE7G15    30.26F
LAUREL           N/A     65  47  52 N1        30.21F
ROUNDUP          N/A     64  46  52 E6        30.14F
$$

REGIONAL REPORTS...DAKOTAS

CITY           SKY/WX    TMP DP  RH WIND       PRES   REMARKS
WILLISTON      SUNNY     72  51  47 CALM      30.25F
MINOT          SUNNY     69  38  32 E8        30.28S
DICKINSON      SUNNY     73  45  36 SE12      30.24F
BEACH            N/A     72  54  53 E5        30.28F
CROSBY           N/A     72  48  43 E8        30.27F
WATFORD CITY     N/A     73  50  43 E9        30.25F
BISMARCK       SUNNY     68  36  30 CALM      30.29S
GRAND FORKS    PTSUNNY   60  46  59 E5        30.32S
FARGO          PTSUNNY   63  46  54 NE8       30.30S
BUFFALO SD       N/A     80  49  33 E9        30.19S
RAPID CITY     SUNNY     78  47  33 E7G16     30.25F
$$

REGIONAL REPORTS...WYOMING/IDAHO/WASHINGTON

CITY           SKY/WX    TMP DP  RH WIND       PRES   REMARKS
GILLETTE       SUNNY     76  44  32 E9        30.29F
SHERIDAN       SUNNY     80  39  23 SE15G24   30.24F
CODY           SUNNY     69  48  47 VRB5      30.28F
YELLOWSTONE LA   N/A     67  32  27 VRB6      30.40F
IDAHO FALLS    SUNNY     77  44  30 CALM      30.18F
SALMON         SUNNY     72  43  35 CALM      30.11F
BOISE          SUNNY     88  40  18 SE15G23   29.99F
SPOKANE        MOSUNNY   74  43  32 E8        30.01F
$$

REGIONAL REPORTS...ALBERTA

CITY           SKY/WX    TMP DP  RH WIND       PRES   REMARKS
EDMONTON       PTSUNNY   57  32  38 SE9       30.28F
CALGARY        PTSUNNY   52  34  50 S14       30.23F
LETHBRIDGE     MOSUNNY   61  41  48 S13G21    30.23F
MEDICINE HAT   PTSUNNY   61  41  48 E13G18    30.25F
WATERTON GATE    N/A     59  36  41 N2          N/A
MILK RIVER       N/A     63  41  45 E8G17       N/A
$$

REGIONAL REPORTS...SASKATCHEWAN

CITY           SKY/WX    TMP DP  RH WIND       PRES   REMARKS
SWIFT CURRENT  PTSUNNY   57  37  47 E14G20    30.29F
REGINA         PTSUNNY   63  46  55 NE13      30.29S
SASKATOON      PTSUNNY   59  34  38 NE7       30.37S
CYPRESS HILLS    N/A     59  32  36 SE10G20     N/A
VAL MARIE        N/A     68  39  34 E12         N/A
ROCKGLEN         N/A     64  46  52 NE8         N/A
ASSINIBOIA       N/A     55  34  44 S12         N/A
$$



USA.gov is the U.S. government's official web portal to all federal, state and local government web resources and services.